Change the Weather History Date:

Friday, October 26, 2012

  Actual Average Record
Temperature  
Mean Temperature 44 °F -  
Max Temperature 48 °F 49 °F 62 °F (2005)
Min Temperature 39 °F 39 °F 33 °F (2010)
Degree Days  
Heating Degree Days 22    
Moisture  
Dew Point 39 °F    
Average Humidity 81    
Maximum Humidity 93    
Minimum Humidity 62    
Precipitation  
Precipitation 0.08 in - - ()
Sea Level Pressure  
Sea Level Pressure 29.89 in    
Wind  
Wind Speed 15 mph ()    
Max Wind Speed 24 mph    
Max Gust Speed 30 mph    
Visibility 6.0 miles    
Events Rain    
Averages and records for this station are not official NWS values.
T = Trace of Precipitation, MM = Missing Value Source: Averaged Metar Reports

Daily Weather History Graph

Daily Weather History Graph

Search for Another Location

Airport or City:

Trip Planner

Search our weather history database for the weather conditions in past years. The results will help you decide how hot, cold, wet, or windy it might be!

Date:

Astronomy

Oct. 26, 2012 Rise Set
Actual Time 7:49 AM BST 5:51 PM BST
Civil Twilight 7:15 AM BST 6:25 PM BST
Nautical Twilight 6:36 AM BST 7:04 PM BST
Astronomical Twilight 5:58 AM BST 7:42 PM BST
Moon 4:15 PM BST (10/26) 4:12 AM BST (10/26)
Length of Visible Light 11h 10m
Length of Day
10h 01m
Waxing Gibbous, 89% of the Moon is Illuminated
Oct 26
Waxing Gibbous
Oct 29
Full
Nov 7
Last Quarter
Nov 13
New
Nov 20
First Quarter

Hourly Weather History & Observations

Time (BST) Temp. Windchill Dew Point Humidity Pressure Visibility Wind Dir Wind Speed Gust Speed Precip Events Conditions
12:50 AM 48.2 °F - 42.8 °F 82% 29.95 in 6.2 mi ENE 19.6 mph - N/A   Mostly Cloudy
1:50 AM 46.4 °F 39.2 °F 42.8 °F 87% 29.95 in 6.2 mi ENE 18.4 mph 29.9 mph N/A   Overcast
2:50 AM 46.4 °F 40.7 °F 42.8 °F 87% 29.95 in 4.3 mi ENE 12.7 mph - N/A Rain Light Rain Showers
3:50 AM 46.4 °F 41.1 °F 42.8 °F 87% 29.92 in 3.1 mi NE 11.5 mph - N/A Rain Light Rain
4:50 AM 46.4 °F 40.1 °F 41.0 °F 81% 29.92 in 6.2 mi ENE 15.0 mph - N/A   Mostly Cloudy
5:50 AM 44.6 °F 38.1 °F 41.0 °F 87% 29.92 in 6.2 mi NE 13.8 mph - N/A   Overcast
6:50 AM 45 °F - 43 °F 88% 29.92 in 3 mi NE 12.7 mph - - Rain Light Rain
6:50 AM 44.6 °F 38.4 °F 42.8 °F 93% 29.89 in 3.1 mi NE 12.7 mph - N/A Rain Light Rain
7:50 AM 44.6 °F 38.1 °F 42.8 °F 93% 29.89 in 2.8 mi NE 13.8 mph - N/A Rain Light Rain
8:37 AM 44.6 °F 37.8 °F 42.8 °F 93% 29.89 in 1.9 mi NE 15.0 mph - N/A Rain Light Rain
8:50 AM 44.6 °F 37.8 °F 42.8 °F 93% 29.89 in - NE 15.0 mph - N/A Rain Light Rain
9:36 AM 42.8 °F 34.5 °F 41.0 °F 93% 29.89 in 2.5 mi NE 18.4 mph - N/A Rain Light Rain
9:50 AM 44 °F - 41 °F 87% 29.92 in 3 mi NE 17.3 mph - - Rain Light Rain
9:50 AM 44.6 °F 37.2 °F 41.0 °F 87% 29.89 in 3.1 mi NE 17.3 mph - N/A Rain Light Rain
10:31 AM 44.6 °F 37.2 °F 41.0 °F 87% 29.89 in 5.0 mi NE 17.3 mph - N/A Rain Light Rain
10:50 AM 44.6 °F 37.4 °F 41.0 °F 87% 29.89 in 5.6 mi NE 16.1 mph - N/A Rain Light Rain
11:24 AM 44.6 °F 37.4 °F 41.0 °F 87% 29.89 in 6.2 mi NE 16.1 mph - N/A Rain Light Rain
11:50 AM 44.6 °F 37.2 °F 41.0 °F 87% 29.89 in 6.2 mi NE 17.3 mph - N/A Rain Light Rain
12:50 PM 46 °F - 39 °F 68% 29.88 in 16 mi NE 17.3 mph - - Rain Light Rain
12:50 PM 46.4 °F 39.5 °F 39.2 °F 76% 29.86 in 6.2 mi NE 17.3 mph - N/A   Mostly Cloudy
1:25 PM 46.4 °F 39.8 °F 39.2 °F 76% 29.86 in 6.2 mi NE 16.1 mph - N/A Rain Light Rain
1:50 PM 44.6 °F 36.9 °F 37.4 °F 76% 29.86 in 6.2 mi NNE 18.4 mph - N/A Rain Light Rain
2:30 PM 44.6 °F 36.9 °F 37.4 °F 76% 29.86 in 6.2 mi NE 18.4 mph - N/A   Mostly Cloudy
2:50 PM 44.6 °F 36.6 °F 37.4 °F 76% 29.86 in 6.2 mi NNE 19.6 mph - N/A   Mostly Cloudy
3:50 PM 45 °F - 36 °F 63% 29.86 in 19 mi NNE 17.3 mph - -   Partly Cloudy
3:50 PM 44.6 °F 37.2 °F 37.4 °F 76% 29.83 in 6.2 mi NNE 17.3 mph - N/A   Mostly Cloudy
4:50 PM 44.6 °F 36.9 °F 35.6 °F 71% 29.83 in 6.2 mi NNE 18.4 mph - N/A   Mostly Cloudy
5:50 PM 44.6 °F 37.8 °F 35.6 °F 71% 29.86 in 6.2 mi NNE 15.0 mph - N/A   Mostly Cloudy
6:50 PM 42.8 °F 35.8 °F 33.8 °F 70% 29.86 in 6.2 mi NNE 13.8 mph - N/A   Mostly Cloudy
7:50 PM 41.0 °F 34.3 °F 35.6 °F 81% 29.86 in 6.2 mi NNE 11.5 mph - N/A   Mostly Cloudy
8:50 PM 41.0 °F 33.1 °F 33.8 °F 76% 29.89 in 6.2 mi NNE 15.0 mph - N/A   Mostly Cloudy
9:50 PM 40 °F - 31 °F 62% 29.91 in 28 mi NNE 20.7 mph - -   Overcast
9:50 PM 39.2 °F 29.3 °F 32.0 °F 75% 29.89 in 6.2 mi NNE 20.7 mph - N/A   Overcast
10:50 PM 39.2 °F 28.5 °F 30.2 °F 70% 29.89 in 6.2 mi NNE 24.2 mph - N/A   Overcast
11:50 PM 39.2 °F 30.5 °F 30.2 °F 70% 29.89 in 6.2 mi North 16.1 mph - N/A   Overcast